Overview Statistics Trail Chart Weather Telemetry Raw packets
 

This is the latest recevied weather packets stored in our database for station/object N9BLE. If no packets are shown the sender has not sent any weather packets the latest 10 day(s).

<< 87 88 89 90 91 92 93 >>
Time Temp. Humidity Pressure Rain* Wind** Luminosity Snow
1777395139 13.33° C 72% 1018.5 hPa 0 mm - 253 W/m² -
1777394836 13.89° C 72% 1018.4 hPa 0 mm - 293 W/m² -
1777394531 13.33° C 72% 1018.3 hPa 0 mm - 331 W/m² -
1777394229 12.78° C 73% 1018.1 hPa 0 mm - 294 W/m² -
1777393924 12.78° C 74% 1018.3 hPa 0 mm - 179 W/m² -
1777393624 12.78° C 75% 1018.1 hPa 0 mm - 258 W/m² -
1777393319 12.78° C 75% 1018 hPa 0 mm - 238 W/m² -
1777393016 12.22° C 75% 1017.9 hPa 0 mm - 275 W/m² -
1777392716 12.78° C 75% 1017.9 hPa 0 mm - 239 W/m² -
1777392408 12.22° C 78% 1017.8 hPa 0 mm - 318 W/m² -
1777392103 11.67° C 78% 1017.8 hPa 0 mm - 250 W/m² -
1777391798 11.67° C 78% 1018.1 hPa 0 mm - 186 W/m² -
1777391495 11.67° C 78% 1018 hPa 0 mm - 184 W/m² -
1777391191 11.67° C 79% 1017.8 hPa 0 mm - 227 W/m² -
1777390887 11.67° C 78% 1017.8 hPa 0 mm - 157 W/m² -
1777390584 11.11° C 79% 1017.9 hPa 0 mm - 173 W/m² -
1777390281 11.11° C 79% 1017.9 hPa 0 mm - 142 W/m² -
1777389976 11.67° C 78% 1017.6 hPa 0 mm - 106 W/m² -
1777389673 11.67° C 78% 1017.8 hPa 0 mm - 109 W/m² -
1777389370 11.67° C 78% 1017.8 hPa 0 mm - 142 W/m² -
1777389068 11.67° C 78% 1017.4 hPa 0 mm - 127 W/m² -
1777388765 11.67° C 79% 1017.3 hPa 0 mm - 129 W/m² -
1777388462 11.67° C 79% 1017.3 hPa 0 mm - 168 W/m² -
1777388161 11.67° C 80% 1017 hPa 0 mm - 155 W/m² -
1777387858 12.22° C 77% 1017 hPa 0 mm - 192 W/m² -

* Rain latest hour (hover to see other rain measurements)
** Current wind speed in m/s (hover to see current wind gust speed)